Location: Hamilton
(37.7830°S, 175.2830°E)
Time: 00:28:51
(UTC+13:00)

Cosmos 2360 Rocket - Pass Details

Date: 24 January 2019
Orbit: 833 x 846 km, 71.0° (Epoch: 22 February)

Event Time Altitude Azimuth Distance (km) Brightness Sun altitude
Exits shadow 21:02:01 - 42° (NE) 2,997 4.5 -5.0°
Reaches altitude 10° 21:04:47 10° 64° (ENE) 2,476 4.0 -5.5°
Maximum altitude 21:06:39 12° 84° (E) 2,364 4.0 -5.8°
Drops below altitude 10° 21:08:31 10° 103° (ESE) 2,486 4.2 -6.1°
Sets 21:12:48 0° 134° (SE) 3,432 5.2 -6.8°
